Location: Dugenta
(41.1333°N, 14.4500°E)
Time: 14:48:00
(UTC+00:00)

Cosmos 2154 Rocket - Pass Details

Date: 03 March 2021
Orbit: 966 x 996 km, 82.9° (Epoch: 13 April)

Event Time Altitude Azimuth Distance (km) Brightness Sun altitude
Rises 17:32:05 0° 176° (S) 3,658 7.0 -7.7°
Reaches altitude 10° 17:34:36 10° 174° (S) 2,710 6.3 -8.2°
Maximum altitude 17:40:44 66° 93° (E) 1,055 4.0 -9.3°
Drops below altitude 10° 17:46:53 10° 13° (NNE) 2,716 6.2 -10.5°
Sets 17:49:24 0° 11° (N) 3,665 6.9 -10.9°
